Location: Asheville, NC
(35.6000°N, 82.5500°W)
Time: 19:45:16
(UTC-04:00)

Vanguard 1 - Pass Details

Date: 09 March 2018
Orbit: 650 x 3833 km, 34.3° (Epoch: 23 June)

Event Time Altitude Azimuth Distance (km) Brightness Sun altitude
Rises 10:08:04 0° 238° (WSW) 7,593 14.4 36.4°
Reaches altitude 10° 10:12:57 10° 236° (WSW) 6,762 14.3 37.1°
Maximum altitude 10:36:26 71° 158° (SSE) 3,740 14.2 40.6°
Drops below altitude 10° 10:54:25 10° 79° (E) 5,403 14.2 42.9°
Sets 10:57:47 0° 78° (ENE) 6,077 14.4 43.3°
